Regional Weather Roundup
Issued by NWS

Home | Current Version | Previous Version | Graphics & Text | Print | Product List | Glossary Off
Versions: 1 2 3 4 5 6 7 8 9 10 11 12 13 14 15 16 17 18 19 20 21 22 23 24 25 26 27 28 29 30 31 32 33 34 35 36 37 38 39 40 41 42 43 44 45 46 47 48 49 50

000
ASUS43 KTOP 022208
RWRKS

WEATHER ROUNDUP FOR KANSAS
NATIONAL WEATHER SERVICE GOODLAND KS
400 PM CST MON MAR 02 2015

NOTE:  "FAIR" INDICATES FEW OR NO CLOUDS BELOW 12,000 FEET WITH NO
SIGNIFICANT WEATHER AND/OR OBSTRUCTIONS TO VISIBILITY.

KSZ001>006-013>018-027>032-041>047-022300-
NORTHWEST KANSAS

CITY           SKY/WX    TMP DP  RH WIND       PRES   REMARKS
GOODLAND       CLOUDY    30  26  85 S28G35    29.87F WCI  15
HAYS           CLOUDY    34  16  47 S22       30.07F WCI  22
HILL CITY      CLOUDY    35  21  56 S16G25    30.03F WCI  25
RUSSELL        CLOUDY    35  19  52 S18       30.08F WCI  24
$$

KSZ061>065-074>080-084>089-022300-
SOUTHWEST KANSAS

CITY           SKY/WX    TMP DP  RH WIND       PRES   REMARKS
DODGE CITY     CLOUDY    32  23  69 S17       30.04F WCI  21
ELKHART          N/A     36  26  67 S18         N/A  WCI  26
GARDEN CITY    CLOUDY    32  27  81 S22G29    29.99F WCI  19
GREAT BEND     CLOUDY    34  19  55 S17       30.11F WCI  23
LIBERAL        CLOUDY    34  27  75 S20       30.03F WCI  22
PRATT          CLOUDY    32  21  64 S15       30.12F WCI  22
$$

KSZ066>073-081>083-090>101-022300-
SOUTHEAST KANSAS

CITY           SKY/WX    TMP DP  RH WIND       PRES   REMARKS
CHANUTE        CLOUDY    36  22  56 SE10      30.25F WCI  28
COFFEYVILLE    CLOUDY    36  26  67 SE8       30.26F
HUTCHINSON     CLOUDY    35  20  54 S14       30.17F WCI  26
MEDICINE LODGE   N/A     32  23  69 S10       30.14F WCI  24
NEWTON         CLOUDY    34  19  55 SE15      30.18F WCI  24
PARSONS        CLOUDY    37  26  64 SE8       30.26F
WICHITA INTL   CLOUDY    35  24  64 S12       30.17F WCI  27
WICHITA JABRA  CLOUDY    34  24  67 SE10      30.17F WCI  26
WICHITA MCCONL CLOUDY    35  27  70 SE15      30.17F WCI  26
WINFIELD       CLOUDY    33  28  81 SE13      30.21F WCI  24
$$

KSZ007>012-019>026-033>040-048>060-102>105-022300-
NORTHEAST KANSAS

CITY           SKY/WX    TMP DP  RH WIND       PRES   REMARKS
CONCORDIA      CLOUDY    37  17  44 S20G25    30.14F WCI  27
EMPORIA        CLOUDY    34  21  59 SE17      30.21F WCI  23
LAWRENCE       CLOUDY    37  19  48 SE17      30.26F WCI  27
MANHATTAN      CLOUDY    37  17  44 SE15      30.19F WCI  28
MARYSVILLE     CLOUDY    37  19  48 S15       30.16F WCI  28
OLATHE IND     CLOUDY    35  21  56 SE9       30.28F
OLATHE EXE     CLOUDY    35  20  54 E10       30.26F WCI  27
SALINA         CLOUDY    37  18  46 S17       30.16F WCI  27
TOPEKA BILLARD CLOUDY    38  17  42 SE15G24   30.23F WCI  29
TOPEKA FORBES  CLOUDY    37  19  48 SE14      30.21F WCI  28
$$


USA.gov is the U.S. government's official web portal to all federal, state and local government web resources and services.